Time,TemperatureF,DewpointF,PressureIn,WindDirection,WindDirectionDegrees,WindSpeedMPH,WindSpeedGustMPH,Humidity,HourlyPrecipIn,Conditions,Clouds,dailyrainin,SoftwareType,DateUTC
2013-11-04 00:24:00,34.0,-99.9,30.47,North,-999,-999.0,-999.0,69,-99.99,,,-99.99,,2013-11-04 05:24:00,
2013-11-04 00:34:00,34.0,-99.9,30.47,North,-999,-999.0,-999.0,69,-99.99,,,-99.99,,2013-11-04 05:34:00,
2013-11-04 00:44:00,34.0,-99.9,30.47,North,-999,-999.0,-999.0,69,-99.99,,,-99.99,,2013-11-04 05:44:00,
2013-11-04 01:23:00,34.0,-99.9,30.49,North,-999,-999.0,-999.0,68,-99.99,,,-99.99,,2013-11-04 06:23:00,
2013-11-04 01:32:00,34.0,-99.9,30.49,North,-999,-999.0,-999.0,68,-99.99,,,-99.99,,2013-11-04 06:32:00,
2013-11-04 01:42:00,34.0,-99.9,30.49,North,-999,-999.0,-999.0,68,-99.99,,,-99.99,,2013-11-04 06:42:00,
2013-11-04 02:22:00,33.0,-99.9,30.48,North,-999,-999.0,-999.0,70,-99.99,,,-99.99,,2013-11-04 07:22:00,
2013-11-04 02:32:00,33.0,-99.9,30.48,North,-999,-999.0,-999.0,70,-99.99,,,-99.99,,2013-11-04 07:32:00,
2013-11-04 02:43:00,33.0,-99.9,30.48,North,-999,-999.0,-999.0,70,-99.99,,,-99.99,,2013-11-04 07:43:00,
2013-11-04 03:21:00,33.0,-99.9,30.49,North,-999,-999.0,-999.0,70,-99.99,,,-99.99,,2013-11-04 08:21:00,
2013-11-04 03:32:00,33.0,-99.9,30.49,North,-999,-999.0,-999.0,70,-99.99,,,-99.99,,2013-11-04 08:32:00,
2013-11-04 03:42:00,33.0,-99.9,30.49,North,-999,-999.0,-999.0,70,-99.99,,,-99.99,,2013-11-04 08:42:00,
2013-11-04 04:22:00,32.0,-99.9,30.49,North,-999,-999.0,-999.0,68,-99.99,,,-99.99,,2013-11-04 09:22:00,
2013-11-04 04:33:00,32.0,-99.9,30.49,North,-999,-999.0,-999.0,68,-99.99,,,-99.99,,2013-11-04 09:33:00,
2013-11-04 04:43:00,32.0,-99.9,30.49,North,-999,-999.0,-999.0,68,-99.99,,,-99.99,,2013-11-04 09:43:00,
2013-11-04 05:23:00,31.0,-99.9,30.49,North,-999,-999.0,-999.0,73,-99.99,,,-99.99,,2013-11-04 10:23:00,
2013-11-04 05:33:00,31.0,-99.9,30.49,North,-999,-999.0,-999.0,73,-99.99,,,-99.99,,2013-11-04 10:33:00,
2013-11-04 05:43:00,31.0,-99.9,30.49,North,-999,-999.0,-999.0,73,-99.99,,,-99.99,,2013-11-04 10:43:00,
2013-11-04 06:22:00,31.0,-99.9,30.52,North,-999,-999.0,-999.0,69,-99.99,,,-99.99,,2013-11-04 11:22:00,
2013-11-04 06:32:00,31.0,-99.9,30.52,North,-999,-999.0,-999.0,69,-99.99,,,-99.99,,2013-11-04 11:32:00,
2013-11-04 06:43:00,31.0,-99.9,30.52,North,-999,-999.0,-999.0,69,-99.99,,,-99.99,,2013-11-04 11:43:00,
2013-11-04 07:22:00,32.0,-99.9,30.51,North,-999,-999.0,-999.0,69,-99.99,,,-99.99,,2013-11-04 12:22:00,
2013-11-04 07:32:00,32.0,-99.9,30.51,North,-999,-999.0,-999.0,69,-99.99,,,-99.99,,2013-11-04 12:32:00,
2013-11-04 07:42:00,32.0,-99.9,30.51,North,-999,-999.0,-999.0,69,-99.99,,,-99.99,,2013-11-04 12:42:00,
2013-11-04 08:22:00,34.0,-99.9,30.49,North,-999,-999.0,-999.0,64,-99.99,,,-99.99,,2013-11-04 13:22:00,
2013-11-04 08:32:00,34.0,-99.9,30.49,North,-999,-999.0,-999.0,64,-99.99,,,-99.99,,2013-11-04 13:32:00,
2013-11-04 08:42:00,34.0,-99.9,30.49,North,-999,-999.0,-999.0,64,-99.99,,,-99.99,,2013-11-04 13:42:00,
2013-11-04 09:22:00,36.0,-99.9,30.51,North,-999,-999.0,-999.0,57,-99.99,,,-99.99,,2013-11-04 14:22:00,
2013-11-04 09:32:00,36.0,-99.9,30.51,North,-999,-999.0,-999.0,57,-99.99,,,-99.99,,2013-11-04 14:32:00,
2013-11-04 09:42:00,36.0,-99.9,30.51,North,-999,-999.0,-999.0,57,-99.99,,,-99.99,,2013-11-04 14:42:00,
2013-11-04 10:22:00,37.0,-99.9,30.49,North,-999,-999.0,-999.0,54,-99.99,,,-99.99,,2013-11-04 15:22:00,
2013-11-04 10:32:00,37.0,-99.9,30.49,North,-999,-999.0,-999.0,54,-99.99,,,-99.99,,2013-11-04 15:32:00,
2013-11-04 10:42:00,37.0,-99.9,30.49,North,-999,-999.0,-999.0,54,-99.99,,,-99.99,,2013-11-04 15:42:00,
2013-11-04 11:23:00,39.0,-99.9,30.49,North,-999,-999.0,-999.0,51,-99.99,,,-99.99,,2013-11-04 16:23:00,
2013-11-04 11:33:00,39.0,-99.9,30.49,North,-999,-999.0,-999.0,51,-99.99,,,-99.99,,2013-11-04 16:33:00,
2013-11-04 11:43:00,39.0,-99.9,30.49,North,-999,-999.0,-999.0,51,-99.99,,,-99.99,,2013-11-04 16:43:00,
2013-11-04 12:22:00,40.0,-99.9,30.46,North,-999,-999.0,-999.0,48,-99.99,,,-99.99,,2013-11-04 17:22:00,
2013-11-04 12:33:00,40.0,-99.9,30.46,North,-999,-999.0,-999.0,48,-99.99,,,-99.99,,2013-11-04 17:33:00,
2013-11-04 12:42:00,40.0,-99.9,30.46,North,-999,-999.0,-999.0,48,-99.99,,,-99.99,,2013-11-04 17:42:00,
2013-11-04 13:23:00,44.0,-99.9,30.44,North,-999,-999.0,-999.0,46,-99.99,,,-99.99,,2013-11-04 18:23:00,
2013-11-04 13:32:00,44.0,-99.9,30.44,North,-999,-999.0,-999.0,46,-99.99,,,-99.99,,2013-11-04 18:32:00,
2013-11-04 13:42:00,44.0,-99.9,30.44,North,-999,-999.0,-999.0,46,-99.99,,,-99.99,,2013-11-04 18:42:00,
2013-11-04 14:22:00,46.0,-99.9,30.41,North,-999,-999.0,-999.0,36,-99.99,,,-99.99,,2013-11-04 19:22:00,
2013-11-04 14:36:00,46.0,-99.9,30.41,North,-999,-999.0,-999.0,36,-99.99,,,-99.99,,2013-11-04 19:36:00,
2013-11-04 14:42:00,46.0,-99.9,30.41,North,-999,-999.0,-999.0,36,-99.99,,,-99.99,,2013-11-04 19:42:00,
2013-11-04 15:22:00,48.0,-99.9,30.39,North,-999,-999.0,-999.0,32,-99.99,,,-99.99,,2013-11-04 20:22:00,
2013-11-04 15:32:00,48.0,-99.9,30.39,North,-999,-999.0,-999.0,32,-99.99,,,-99.99,,2013-11-04 20:32:00,
2013-11-04 15:42:00,48.0,-99.9,30.39,North,-999,-999.0,-999.0,32,-99.99,,,-99.99,,2013-11-04 20:42:00,
2013-11-04 16:22:00,47.0,-99.9,30.37,North,-999,-999.0,-999.0,33,-99.99,,,-99.99,,2013-11-04 21:22:00,
2013-11-04 16:34:00,47.0,-99.9,30.37,North,-999,-999.0,-999.0,33,-99.99,,,-99.99,,2013-11-04 21:34:00,
2013-11-04 16:45:00,47.0,-99.9,30.37,North,-999,-999.0,-999.0,33,-99.99,,,-99.99,,2013-11-04 21:45:00,
2013-11-04 17:23:00,46.0,-99.9,30.38,North,-999,-999.0,-999.0,38,-99.99,,,-99.99,,2013-11-04 22:23:00,
2013-11-04 17:33:00,46.0,-99.9,30.38,North,-999,-999.0,-999.0,38,-99.99,,,-99.99,,2013-11-04 22:33:00,
2013-11-04 17:43:00,46.0,-99.9,30.38,North,-999,-999.0,-999.0,38,-99.99,,,-99.99,,2013-11-04 22:43:00,
2013-11-04 18:23:00,45.0,-99.9,30.39,North,-999,-999.0,-999.0,39,-99.99,,,-99.99,,2013-11-04 23:23:00,
2013-11-04 18:33:00,45.0,-99.9,30.39,North,-999,-999.0,-999.0,39,-99.99,,,-99.99,,2013-11-04 23:33:00,
2013-11-04 18:43:00,45.0,-99.9,30.39,North,-999,-999.0,-999.0,39,-99.99,,,-99.99,,2013-11-04 23:43:00,
2013-11-04 19:22:00,44.0,-99.9,30.38,North,-999,-999.0,-999.0,43,-99.99,,,-99.99,,2013-11-05 00:22:00,
2013-11-04 19:32:00,44.0,-99.9,30.38,North,-999,-999.0,-999.0,43,-99.99,,,-99.99,,2013-11-05 00:32:00,
2013-11-04 19:42:00,44.0,-99.9,30.38,North,-999,-999.0,-999.0,43,-99.99,,,-99.99,,2013-11-05 00:42:00,
2013-11-04 20:22:00,44.0,-99.9,30.37,North,-999,-999.0,-999.0,44,-99.99,,,-99.99,,2013-11-05 01:22:00,
2013-11-04 20:32:00,44.0,-99.9,30.37,North,-999,-999.0,-999.0,44,-99.99,,,-99.99,,2013-11-05 01:32:00,
2013-11-04 20:42:00,44.0,-99.9,30.37,North,-999,-999.0,-999.0,44,-99.99,,,-99.99,,2013-11-05 01:42:00,
2013-11-04 21:23:00,44.0,-99.9,30.37,North,-999,-999.0,-999.0,44,-99.99,,,-99.99,,2013-11-05 02:23:00,
2013-11-04 21:32:00,44.0,-99.9,30.37,North,-999,-999.0,-999.0,44,-99.99,,,-99.99,,2013-11-05 02:32:00,
2013-11-04 21:42:00,44.0,-99.9,30.37,North,-999,-999.0,-999.0,44,-99.99,,,-99.99,,2013-11-05 02:42:00,
2013-11-04 22:22:00,44.0,-99.9,30.38,North,-999,-999.0,-999.0,47,-99.99,,,-99.99,,2013-11-05 03:22:00,
2013-11-04 22:34:00,44.0,-99.9,30.38,North,-999,-999.0,-999.0,47,-99.99,,,-99.99,,2013-11-05 03:34:00,
2013-11-04 22:44:00,44.0,-99.9,30.38,North,-999,-999.0,-999.0,47,-99.99,,,-99.99,,2013-11-05 03:44:00,
2013-11-04 23:23:00,44.0,-99.9,30.38,North,-999,-999.0,-999.0,49,-99.99,,,-99.99,,2013-11-05 04:23:00,
2013-11-04 23:34:00,44.0,-99.9,30.38,North,-999,-999.0,-999.0,49,-99.99,,,-99.99,,2013-11-05 04:34:00,
2013-11-04 23:44:00,44.0,-99.9,30.38,North,-999,-999.0,-999.0,49,-99.99,,,-99.99,,2013-11-05 04:44:00,